• Join FlightAware (Why Join?)
  • Login
  • US Flag 
07:34AM EDT


 

Airport Tracker/Info


-or-


 

Live Flight TrackerFlight Track Log ✈ EJA930 ✈ 22-Jun-2013 ✈ KLAS - KSMO

Flight Track Log - Related Links

Times and Time Zones

All times are in EDT time to prevent confusion due to time zone crossing. See the EJA930 flight status page for this flight to view local times or setup timezone preferences in your user account.

Time Position Orientation Groundspeed Altitude Reporting Facility
EDT Latitude Longitude Course Direction KTS MPH feet Rate Location/Type
06:11PM 36.0672 -115.1764 215° Southwest 170 196 3,100  Level Los Angeles Center
06:13PM 36.0017 -115.2325 215° Southwest 237 273 6,500 1,500 Climbing Los Angeles Center
06:14PM 35.9356 -115.3072 222° Southwest 290 334 6,900 1,260 Climbing Los Angeles Center
06:15PM 35.8747 -115.3128 184° South 277 319 9,200 2,700 Climbing Los Angeles Center
06:16PM 35.7967 -115.3100 178° South 280 322 12,000 2,220 Climbing Los Angeles Center
06:17PM 35.6989 -115.3031 177° South 286 329 14,300 1,680 Climbing Los Angeles Center
06:18PM 35.6050 -115.3861 216° Southwest 325 374 15,900 1,320 Climbing Los Angeles Center
06:19PM 35.5375 -115.4781 228° Southwest 344 396 17,100 1,260 Climbing Los Angeles Center
06:20PM 35.4669 -115.5769 229° Southwest 364 419 18,600 1,320 Climbing Los Angeles Center
06:21PM 35.3947 -115.6731 227° Southwest 385 443 19,900 1,260 Climbing Los Angeles Center
06:22PM 35.3203 -115.7742 228° Southwest 396 456 21,200 1,260 Climbing Los Angeles Center
06:23PM 35.2444 -115.8767 228° Southwest 404 465 22,500 1,200 Climbing Los Angeles Center
06:24PM 35.1667 -115.9808 228° Southwest 413 475 23,700 720 Climbing Los Angeles Center
06:25PM 35.0667 -116.1119 227° Southwest 433 498 24,000 60 Climbing Los Angeles Center
06:26PM 34.9778 -116.2286 227° Southwest 458 527 23,900 -600 Descending Los Angeles Center
06:27PM 34.8894 -116.3433 227° Southwest 463 533 22,800 -960 Descending Los Angeles Center
06:28PM 34.8225 -116.4781 239° Southwest 467 537 22,000 -420 Descending Los Angeles Center
06:29PM 34.7967 -116.6264 258° West 446 513 22,000  Level Los Angeles Center
06:30PM 34.7819 -116.7756 263° West 445 512 22,000  Level Los Angeles Center
06:32PM 34.7644 -116.9247 262° West 445 512 22,000  Level Los Angeles Center
06:33PM 34.7472 -117.0722 262° West 441 507 22,000  Level Los Angeles Center
06:34PM 34.7281 -117.2511 263° West 442 509 22,000 -300 Level Los Angeles Center
06:35PM 34.7097 -117.4000 262° West 443 510 21,400 -1,500 Descending Los Angeles Center
06:36PM 34.6925 -117.5519 262° West 450 518 19,000 -2,340 Descending Los Angeles Center
06:37PM 34.6753 -117.6986 262° West 439 505 16,600 -2,460 Descending Los Angeles Center
06:38PM 34.6525 -117.8408 259° West 436 502 14,000 -2,460 Descending Los Angeles Center
06:39PM 34.6114 -117.9706 249° West 411 473 11,600 -1,920 Descending Los Angeles Center
06:40PM 34.5722 -118.0856 248° West 368 423 10,100 -1,620 Descending Los Angeles Center
06:41PM 34.5378 -118.1844 247° West 287 330 8,400 -960 Descending Los Angeles Center
06:42PM 34.5050 -118.2697 245° Southwest 282 325 8,000 -180 Descending Los Angeles Center
06:43PM 34.4439 -118.3592 230° Southwest 289 333 8,000 -300 Level Los Angeles Center
06:44PM 34.3639 -118.3578 179° South 294 338 7,500 -660 Descending Los Angeles Center
06:45PM 34.2767 -118.3408 171° South 268 308 6,700 -720 Descending Los Angeles Center
06:46PM 34.2125 -118.3164 163° South 245 282 6,100 -840 Descending Los Angeles Center
06:47PM 34.1494 -118.2992 167° South 234 269 5,000 -1,260 Descending Los Angeles Center
06:48PM 34.0983 -118.3444 216° Southwest 233 268 3,600 -1,500 Descending Los Angeles Center
06:49PM 34.0633 -118.3894 227° Southwest 208 239 1,900 -1,320 Descending Los Angeles Center
06:50PM 34.0397 -118.4239 230° Southwest 164 189 1,000 -840 Descending Los Angeles Center
06:51PM 34.0142 -118.4542 224° Southwest 141 162 300 -720 Descending Los Angeles Center
06:53PM 34.0158 -118.4513 North  Level Estimated
07:00PM 34.0158 -118.4513 North  Level Estimated